SCP
-0 -0 -0 -0 -0 -0 -0 -0 -0 -0 -0 -0 -0 -0 -0 -0 -0 -0 -0 -0 -0 0 0 0 0 0 0 0 0 0 0 0 0 0 0 0 0 0 0 0 0 0 0 0 0 -0 -0
-0 -0 0 -0 -0 -0 -0 -0 -0 -0 -0 -0 -0 -0 -0 -0 -0 -0 -0 -0 -0 -0 0 0 0 0 0 0 0 0 0 0 0 0 0 0 0 0 0 0 0 0 -0 0 0 0 -0
-0 -0 -0 -0 -0 -0 -0 -0 -0 -0 -0 -0 -0 -0 -0 -0 -0 -0 -0 -0 -0 -0 -0 0 0 0 0 0 0 0 0 0 0 0 0 0 0 0 0 0 0 0 0 0 0 0 -0
0 -0 0 -0 -0 -0 -0 -0 -0 -0 -0 -0 -0 -0 -0 -0 -0 -0 -0 -0 -0 -0 -0 0 0 0 0 0 0 0 0 0 0 0 0 0 0 0 0 0 0 0 0 0 0 0 -0
-0 0 -0 -0 -0 -0 -0 -0 -0 -0 -0 -0 -0 -0 -0 -0 -0 -0 -0 -0 -0 -0 -0 0 0 0 0 0 0 0 0 0 0 0 0 0 0 0 0 0 0 0 0 0 0 0 0
-0 0 -0 -0 -0 -0 -0 -0 -0 -0 -0 -0 -0 -0 -0 -0 -0 -0 -0 -0 -0 -0 -0 -0 0 0 0 0 0 0 0 0 0 0 0 0 0 0 0 0 0 0 0 0 0 0 0
-0 -0 -0 -0 -0 -0 -0 -0 -0 -0 -0 -0 -0 -0 -0 -0 -0 -0 -0 -0 0 0 -0 -0 0 0 0 0 0 0 0 0 0 0 0 0 0 0 0 0 0 0 0 0 -0 0 0
-0 -0 -0 -0 -0 -0 -0 -0 -0 -0 -0 -0 -0 -0 -0 -0 -0 -0 0 -0 0 -0 -0 0 -0 0 0 0 0 0 0 0 0 0 0 0 0 0 0 0 0 0 0 -0 -0 0 0
-0 -0 -0 -0 -0 -0 -0 -0 -0 -0 -0 -0 -0 -0 -0 -0 -0 0 0 0 0 0 0 -0 0 0 0 0 0 0 0 0 0 0 0 0 0 0 0 0 0 0 0 -0 0 0 0
-0 -0 -0 -0 -0 -0 -0 -0 -0 -0 -0 -0 -0 -0 -0 -0 0 0 0 -0 -0 0 0 -0 -0 0 0 0 0 0 0 0 0 0 0 0 0 0 0 0 0 0 0 0 0 0 0
-0 -0 -0 -0 -0 -0 -0 -0 -0 -0 -0 -0 -0 -0 -0 -0 0 0 0 -0 -0 -0 0 0 -0 0 0 0 0 0 0 0 0 0 0 0 0 0 0 0 0 0 0 0 0 0 0
-0 -0 -0 -0 -0 -0 -0 -0 -0 -0 -0 -0 -0 -0 -0 0 0 0 0 0 -0 0 0 0 -0 0 0 0 0 0 0 0 0 0 0 0 0 0 0 0 0 0 0 0 0 0 0
-0 -0 -0 -0 -0 -0 -0 -0 -0 -0 -0 -0 -0 -0 0 0 0 0 0 -0 0 0 0 0 0 0 0 0 0 0 0 0 0 0 0 0 0 0 0 0 0 0 0 0 0 0 0
-0 -0 -0 -0 -0 -0 -0 -0 -0 -0 -0 -0 -0 -0 0 0 0 0 0 0 0 0 0 0 0 0 0 0 0 0 0 0 0 0 0 0 0 0 0 0 0 0 0 0 0 0 0
0 0 0 0 0 -0 -0 -0 -0 -0 -0 -0 -0 0 0 0 0 0 0 0 0 0 0 0 0 0 0 0 0 0 0 0 0 0 0 0 0 0 0 0 0 0 0 0 0 0 0
0 0 0 0 0 0 0 0 -0 -0 -0 0 0 0 0 0 0 0 0 0 0 0 0 0 0 0 0 0 0 0 0 0 0 0 0 0 0 -0 0 0 0 0 0 0 0 0 0
0 0 0 0 0 0 0 0 0 0 -0 0 0 0 0 0 0 0 0 0 0 0 0 0 0 0 0 0 0 0 0 0 0 0 0 0 0 0 -0 0 0 0 0 0 0 0 0
0 0 0 0 0 0 0 0 0 0 -0 0 0 0 0 0 0 0 0 0 0 0 0 0 0 0 0 0 0 0 0 0 0 0 -0 -0 0 0 0 -0 0 0 0 0 0 0 0
0 0 0 0 0 0 0 0 0 0 0 0 0 0 0 0 0 0 0 0 0 0 0 0 0 0 0 0 0 0 0 0 0 0 0 0 0 0 0 0 -0 0 0 0 0 0 0
0 0 0 0 0 0 0 0 0 0 0 0 0 0 0 0 0 0 0 0 0 0 0 0 0 0 0 0 0 0 0 0 0 0 0 0 0 0 0 0 0 0 0 0 0 0 0
0 0 0 0 0 0 0 0 0 0 0 0 0 0 0 0 0 0 0 0 0 0 0 0 0 0 0 0 0 0 0 0 0 0 0 0 0 0 0 0 0 -0 -0 0 0 0 0
0 0 0 0 0 0 0 0 0 0 0 0 0 0 0 0 0 0 0 0 0 0 0 0 0 0 0 0 0 0 0 0 0 0 0 0 0 0 0 0 0 0 -0 0 0 0 0
0 0 0 0 0 0 0 0 0 0 0 0 0 0 0 0 0 0 0 0 0 0 0 0 0 0 0 0 0 0 0 0 0 0 0 0 0 0 0 0 0 0 -0 0 0 0 0
0 0 0 0 0 0 0 0 0 0 0 0 0 0 0 0 0 0 0 0 0 0 0 0 0 0 0 0 0 0 0 0 0 -0 0 0 0 0 0 -0 0 -0 -0 0 0 0 0
0 0 0 0 0 0 0 0 0 0 0 0 0 0 0 0 0 0 0 0 0 0 0 0 0 0 0 0 0 0 0 0 0 0 -0 0 0 0 0 0 0 0 1 0 0 0 1
0 0 0 0 0 0 0 0 0 0 0 0 0 0 0 0 0 0 0 0 0 0 0 0 0 0 0 0 0 0 0 -0 -0 -0 -0 -0 0 0 -0 -0 -0 0 0 1 0 1 0
0 0 0 0 0 0 0 0 0 0 0 0 0 0 0 0 0 0 0 0 0 0 0 0 0 0 0 0 0 0 -0 -0 -0 -0 0 -0 -0 -0 -0 -0 0 0 1 0 0 0 0
0 0 0 0 0 0 0 0 0 0 0 0 0 0 0 0 0 0 0 0 0 0 0 0 0 0 0 0 0 0 0 -0 -0 -0 -0 -0 0 -0 -0 0 0 0 0 0 0 0 0
0 0 0 0 0 0 0 0 0 0 0 0 0 0 0 0 0 0 0 0 0 0 0 0 0 0 0 0 0 0 -0 0 -0 -0 -0 0 0 0 0 0 0 0 0 0 0 1 1
Wind_Speed_500mb
20 22 25 30 32 33 34 36 35 36 38 38 38 38 35 32 30 27 28 25 24 25 24 23 20 18 12 4 5 9 3 5 2 13 20 13 9 4 2 5 3 7 7 23 43 43 22
21 24 29 34 35 36 36 36 39 40 39 39 38 37 37 35 33 32 28 23 21 25 23 22 19 14 13 5 10 10 3 5 5 14 10 11 11 12 6 4 6 6 22 27 27 38 5
24 31 34 33 33 34 37 39 40 40 41 40 38 38 38 35 34 33 29 25 23 22 20 20 16 14 18 15 15 17 12 11 13 8 6 7 15 10 9 8 4 10 11 19 9 10 11
30 31 33 35 37 41 43 46 49 49 47 46 44 39 34 35 31 27 26 27 22 16 16 14 11 11 15 8 28 24 20 14 16 10 6 5 14 12 4 8 13 8 9 8 7 13 7
28 31 32 35 39 43 46 47 48 48 48 45 43 39 35 31 26 24 23 16 19 10 5 4 3 10 11 7 19 26 28 15 13 10 6 13 11 2 3 9 11 14 5 6 20 5 1
31 32 33 35 38 42 45 48 49 47 46 45 43 39 29 25 18 23 15 12 16 17 16 2 5 7 3 2 4 1 30 22 15 10 12 9 2 5 7 8 10 9 5 8 12 6 9
31 33 34 37 41 45 50 52 49 46 44 44 43 36 23 12 17 28 10 2 12 2 27 10 7 13 14 16 1 6 23 29 17 7 5 6 5 15 12 7 5 1 4 11 13 14 12
33 36 36 38 40 44 48 48 46 44 43 43 42 35 21 10 11 16 25 28 32 27 22 16 20 37 37 36 14 4 19 23 13 8 7 9 14 7 8 4 7 6 7 15 19 11 6
35 36 38 41 43 48 52 53 51 47 44 43 41 35 19 9 14 9 12 21 16 16 7 16 7 11 11 5 6 9 8 15 6 7 6 12 13 11 7 9 8 8 11 6 17 16 12
35 37 40 43 45 49 54 56 53 47 44 42 39 34 24 1 1 15 1 7 7 14 8 10 10 9 7 8 6 16 24 3 1 15 15 10 14 14 9 11 13 14 11 15 14 5 10
36 38 41 43 45 49 54 56 52 44 40 38 37 30 25 24 14 20 22 10 10 8 10 9 8 9 2 4 15 9 19 19 8 8 13 15 6 6 11 20 12 20 15 15 15 10 4
35 37 40 43 46 49 53 54 52 43 35 32 30 27 28 27 24 26 29 12 6 8 5 13 11 15 10 2 7 21 5 10 6 3 3 16 13 8 12 10 9 14 9 12 5 7 7
33 36 40 43 47 49 52 55 53 46 36 30 23 18 29 35 34 32 36 3 9 11 11 14 10 11 4 13 14 16 11 5 5 3 11 9 15 8 14 13 5 7 10 7 7 3 12
33 36 38 42 45 49 52 53 53 48 38 29 26 12 24 36 40 37 29 9 16 4 8 9 11 14 12 21 14 19 12 12 14 5 2 7 15 12 4 16 18 16 18 11 11 6 9
32 35 38 41 45 47 49 51 51 48 40 27 21 13 17 35 46 37 14 12 5 6 11 10 8 11 12 12 10 15 15 5 10 22 10 10 11 18 18 10 14 7 7 17 14 3 2
32 35 38 41 43 45 48 50 50 47 41 31 23 13 20 33 40 25 11 7 7 15 14 8 6 6 10 13 13 14 7 4 4 30 36 7 15 11 13 13 8 12 11 5 4 8 11
31 34 36 37 41 43 45 48 49 45 40 31 18 5 16 28 22 15 8 2 6 21 22 11 7 6 9 9 5 3 10 10 22 19 24 7 7 12 10 9 13 7 7 3 5 11 14
32 33 34 35 38 41 44 45 48 47 38 28 9 6 20 29 11 8 5 8 15 17 25 11 8 7 5 6 5 4 12 6 49 36 14 5 7 9 23 29 28 20 25 17 10 13 5
33 35 34 34 37 39 42 42 43 44 39 34 10 10 16 21 7 6 10 9 8 12 8 8 7 8 4 3 8 7 6 16 35 15 9 12 7 10 19 18 6 7 12 13 6 8 14
33 32 31 32 33 37 40 41 40 38 28 23 9 6 10 15 15 8 7 6 9 17 4 10 4 5 9 5 10 8 17 13 36 38 34 7 11 19 27 20 25 20 39 28 17 10 12
33 31 29 29 31 31 34 39 39 34 21 14 10 5 7 6 6 7 1 5 5 9 11 16 11 10 9 8 12 16 10 21 23 40 21 16 15 18 40 43 35 50 40 49 33 41 19
31 28 27 27 28 33 37 37 35 31 16 5 6 7 6 7 10 6 4 2 6 6 4 8 6 11 10 11 19 34 27 9 18 14 8 5 16 26 35 42 36 46 45 54 44 40 19
27 24 24 24 25 28 33 35 38 31 13 1 2 2 2 4 5 3 1 5 8 18 13 8 16 22 25 35 42 44 49 58 50 33 31 14 17 8 36 41 25 33 51 53 47 16 20
23 23 22 22 23 25 29 33 36 31 16 7 3 3 3 6 0 3 11 19 8 10 10 38 35 15 18 40 67 54 54 57 57 54 52 25 13 9 21 12 28 30 29 44 33 24 13
24 23 21 22 22 24 26 30 32 30 21 11 11 5 2 5 5 21 13 9 21 34 17 29 33 24 47 39 7 11 9 10 15 13 10 35 17 8 9 8 19 8 10 14 16 18 9
22 21 21 21 22 23 24 26 28 28 23 8 21 12 3 7 8 11 12 17 9 9 12 11 42 37 29 7 4 6 7 8 10 21 32 23 24 20 7 5 9 13 9 8 7 8 13
21 20 20 20 20 20 21 22 23 25 22 12 12 21 17 12 26 28 7 2 12 5 7 25 24 21 8 5 6 8 10 6 7 12 12 11 8 22 13 9 21 11 8 9 12 13 46
20 19 18 17 18 19 19 20 19 20 21 14 9 23 22 17 41 58 60 46 33 22 7 22 20 4 8 6 4 7 6 7 6 14 4 10 8 8 10 12 19 6 9 9 10 11 52
18 17 17 16 17 18 19 18 18 16 16 18 11 14 25 33 38 45 60 75 74 68 47 17 13 9 8 4 6 7 11 8 5 6 12 5 1 7 7 10 16 36 15 25 26 27 42
Wind_Direction_500mb
34 31 24 22 18 10 5 0 1 356 353 348 344 340 337 330 322 315 306 305 306 296 288 277 286 306 325 289 211 180 294 334 68 145 149 135 135 108 141 179 301 246 304 320 311 307 297
29 28 26 23 14 9 5 2 357 353 350 346 342 339 336 332 328 320 313 312 303 297 291 272 265 285 305 285 180 171 165 252 184 161 162 96 26 340 274 248 161 267 292 299 309 305 319
26 24 23 17 11 7 3 1 357 351 346 342 340 339 335 332 332 329 329 324 304 294 290 272 256 267 271 229 192 189 162 142 171 174 183 56 9 3 323 301 303 287 328 334 308 315 358
25 20 15 11 6 6 4 359 355 351 346 342 340 340 339 335 337 343 340 326 319 296 280 272 247 262 255 215 219 204 195 175 172 182 236 356 348 317 225 312 355 15 52 355 267 324 173
21 19 14 9 4 4 0 355 352 349 346 346 345 342 340 341 351 0 346 21 21 3 309 255 247 254 266 234 247 232 214 190 173 210 275 299 310 271 310 77 5 357 222 222 311 202 291
17 15 11 7 4 1 358 354 352 351 348 348 351 351 345 345 29 16 21 42 47 49 33 2 244 287 294 351 289 143 221 215 215 240 266 275 318 61 40 90 218 250 248 262 251 308 13
16 14 8 7 2 359 358 355 355 353 352 352 354 357 358 6 36 37 50 89 12 325 326 261 257 283 310 0 196 198 196 203 232 190 127 1 79 226 232 196 170 244 255 272 277 284 325
16 11 9 6 1 359 0 1 359 359 357 357 357 1 11 64 45 47 57 63 26 337 306 311 274 262 264 282 315 41 175 178 183 171 134 11 250 238 227 213 237 251 286 288 285 272 167
13 9 8 6 2 359 2 4 3 2 359 1 2 5 27 100 72 97 61 36 16 344 280 312 324 287 282 246 242 286 191 192 142 169 160 170 234 63 189 273 270 256 231 236 246 324 247
9 7 6 4 1 1 2 5 3 0 359 0 3 9 28 204 47 6 345 286 267 306 47 331 10 19 351 117 281 262 239 215 148 200 161 225 267 232 238 250 171 272 214 243 273 9 268
7 5 3 3 1 1 2 3 2 359 358 359 2 16 21 20 10 5 343 312 238 294 69 335 43 28 133 206 325 32 235 197 205 177 108 243 290 266 228 236 162 244 261 229 250 230 281
5 2 0 2 2 0 359 1 1 0 0 1 3 20 20 18 10 0 346 310 262 43 67 355 13 351 3 293 300 334 341 202 230 163 127 235 254 206 216 263 165 277 310 286 80 139 236
3 0 360 1 1 0 359 359 0 358 0 0 357 26 36 32 10 352 346 335 42 71 327 357 325 346 33 340 20 0 345 18 198 155 256 280 252 229 215 293 344 195 76 308 313 179 225
357 357 357 359 360 359 357 357 359 357 356 0 1 21 33 22 8 354 355 62 68 350 358 358 326 347 56 24 2 355 12 13 5 1 35 245 311 182 190 178 211 193 164 171 214 228 268
349 351 354 356 357 357 356 355 357 356 354 353 358 353 13 9 2 357 2 53 127 8 313 336 349 38 2 6 26 11 359 352 45 30 23 337 281 331 316 242 146 280 176 197 227 305 290
344 347 349 351 353 353 354 353 356 357 353 352 351 359 13 6 356 357 66 120 102 21 332 18 63 55 12 349 28 22 320 335 34 41 357 325 302 262 290 281 223 195 194 275 355 199 236
338 341 343 345 348 351 351 352 353 357 354 353 359 42 13 358 6 33 93 53 45 22 29 39 17 13 42 20 332 250 272 324 26 348 345 341 200 296 320 241 225 293 234 202 175 163 209
333 336 337 340 343 347 349 352 351 355 360 355 20 36 358 4 49 37 52 335 352 6 21 19 107 72 79 4 289 264 235 327 5 1 332 266 256 255 256 285 278 257 245 189 177 261 238
330 331 332 334 338 345 347 350 353 355 359 4 14 346 14 13 79 19 334 342 35 19 346 6 25 58 102 317 318 258 308 336 327 2 348 338 285 319 309 308 48 227 219 178 161 112 218
322 326 327 331 336 341 345 346 350 353 357 1 5 19 21 58 66 90 24 321 348 335 53 26 308 58 19 286 234 278 290 299 308 283 260 215 225 221 253 261 303 293 294 293 214 177 220
312 316 321 325 332 340 342 343 347 349 353 2 23 48 33 331 8 357 329 306 319 358 13 31 354 66 21 287 292 255 275 307 290 279 268 186 224 230 259 262 264 271 272 278 269 246 188
308 313 318 324 333 341 342 347 348 347 349 18 35 22 1 324 330 25 355 2 5 8 1 297 203 346 320 249 251 282 284 284 269 278 221 204 263 266 256 264 250 257 255 265 262 261 240
303 309 314 319 330 338 341 344 343 349 346 175 110 89 317 320 351 60 204 352 325 334 301 225 343 317 289 271 274 279 278 275 258 253 254 230 248 267 270 260 275 264 237 246 245 208 196
302 306 310 314 324 334 339 343 343 343 341 234 133 56 45 285 277 236 328 313 316 317 275 296 296 267 266 292 302 295 274 255 252 256 233 236 199 221 268 270 240 243 216 219 222 233 199
295 301 305 310 320 329 335 339 339 337 338 225 190 134 11 285 288 295 310 297 310 314 283 284 301 295 303 298 280 314 303 312 266 244 266 219 203 233 248 246 290 206 147 158 165 232 212
290 293 297 304 314 323 329 335 335 336 333 296 211 210 263 320 259 234 310 283 285 294 318 260 308 314 311 236 201 242 255 273 302 333 323 180 220 205 239 309 263 200 149 47 186 273 175
287 286 291 298 308 318 323 329 330 331 326 318 225 217 226 270 277 274 215 261 304 332 284 302 340 325 343 316 254 231 254 262 300 315 332 266 190 226 254 254 273 251 273 260 145 239 169
277 279 283 292 304 312 317 323 322 327 321 321 236 217 234 258 272 272 272 268 264 258 237 295 323 298 342 329 321 311 345 311 219 207 271 286 205 199 184 203 256 211 265 211 297 274 172
268 276 279 286 297 306 313 316 311 307 313 316 306 245 252 259 261 273 275 277 275 272 259 258 245 301 270 298 331 328 285 256 270 274 243 351 21 283 274 230 298 328 299 327 327 164 155
Wind_Speed_850mb
20 22 25 30 32 33 34 36 35 36 38 38 38 38 35 32 30 27 28 25 24 25 24 23 20 18 12 4 5 9 3 5 2 13 20 13 9 4 2 5 3 7 7 23 43 43 22
21 24 29 34 35 36 36 36 39 40 39 39 38 37 37 35 33 32 28 23 21 25 23 22 19 14 13 5 10 10 3 5 5 14 10 11 11 12 6 4 6 6 22 27 27 38 5
24 31 34 33 33 34 37 39 40 40 41 40 38 38 38 35 34 33 29 25 23 22 20 20 16 14 18 15 15 17 12 11 13 8 6 7 15 10 9 8 4 10 11 19 9 10 11
30 31 33 35 37 41 43 46 49 49 47 46 44 39 34 35 31 27 26 27 22 16 16 14 11 11 15 8 28 24 20 14 16 10 6 5 14 12 4 8 13 8 9 8 7 13 7
28 31 32 35 39 43 46 47 48 48 48 45 43 39 35 31 26 24 23 16 19 10 5 4 3 10 11 7 19 26 28 15 13 10 6 13 11 2 3 9 11 14 5 6 20 5 1
31 32 33 35 38 42 45 48 49 47 46 45 43 39 29 25 18 23 15 12 16 17 16 2 5 7 3 2 4 1 30 22 15 10 12 9 2 5 7 8 10 9 5 8 12 6 9
31 33 34 37 41 45 50 52 49 46 44 44 43 36 23 12 17 28 10 2 12 2 27 10 7 13 14 16 1 6 23 29 17 7 5 6 5 15 12 7 5 1 4 11 13 14 12
33 36 36 38 40 44 48 48 46 44 43 43 42 35 21 10 11 16 25 28 32 27 22 16 20 37 37 36 14 4 19 23 13 8 7 9 14 7 8 4 7 6 7 15 19 11 6
35 36 38 41 43 48 52 53 51 47 44 43 41 35 19 9 14 9 12 21 16 16 7 16 7 11 11 5 6 9 8 15 6 7 6 12 13 11 7 9 8 8 11 6 17 16 12
35 37 40 43 45 49 54 56 53 47 44 42 39 34 24 1 1 15 1 7 7 14 8 10 10 9 7 8 6 16 24 3 1 15 15 10 14 14 9 11 13 14 11 15 14 5 10
36 38 41 43 45 49 54 56 52 44 40 38 37 30 25 24 14 20 22 10 10 8 10 9 8 9 2 4 15 9 19 19 8 8 13 15 6 6 11 20 12 20 15 15 15 10 4
35 37 40 43 46 49 53 54 52 43 35 32 30 27 28 27 24 26 29 12 6 8 5 13 11 15 10 2 7 21 5 10 6 3 3 16 13 8 12 10 9 14 9 12 5 7 7
33 36 40 43 47 49 52 55 53 46 36 30 23 18 29 35 34 32 36 3 9 11 11 14 10 11 4 13 14 16 11 5 5 3 11 9 15 8 14 13 5 7 10 7 7 3 12
33 36 38 42 45 49 52 53 53 48 38 29 26 12 24 36 40 37 29 9 16 4 8 9 11 14 12 21 14 19 12 12 14 5 2 7 15 12 4 16 18 16 18 11 11 6 9
32 35 38 41 45 47 49 51 51 48 40 27 21 13 17 35 46 37 14 12 5 6 11 10 8 11 12 12 10 15 15 5 10 22 10 10 11 18 18 10 14 7 7 17 14 3 2
32 35 38 41 43 45 48 50 50 47 41 31 23 13 20 33 40 25 11 7 7 15 14 8 6 6 10 13 13 14 7 4 4 30 36 7 15 11 13 13 8 12 11 5 4 8 11
31 34 36 37 41 43 45 48 49 45 40 31 18 5 16 28 22 15 8 2 6 21 22 11 7 6 9 9 5 3 10 10 22 19 24 7 7 12 10 9 13 7 7 3 5 11 14
32 33 34 35 38 41 44 45 48 47 38 28 9 6 20 29 11 8 5 8 15 17 25 11 8 7 5 6 5 4 12 6 49 36 14 5 7 9 23 29 28 20 25 17 10 13 5
33 35 34 34 37 39 42 42 43 44 39 34 10 10 16 21 7 6 10 9 8 12 8 8 7 8 4 3 8 7 6 16 35 15 9 12 7 10 19 18 6 7 12 13 6 8 14
33 32 31 32 33 37 40 41 40 38 28 23 9 6 10 15 15 8 7 6 9 17 4 10 4 5 9 5 10 8 17 13 36 38 34 7 11 19 27 20 25 20 39 28 17 10 12
33 31 29 29 31 31 34 39 39 34 21 14 10 5 7 6 6 7 1 5 5 9 11 16 11 10 9 8 12 16 10 21 23 40 21 16 15 18 40 43 35 50 40 49 33 41 19
31 28 27 27 28 33 37 37 35 31 16 5 6 7 6 7 10 6 4 2 6 6 4 8 6 11 10 11 19 34 27 9 18 14 8 5 16 26 35 42 36 46 45 54 44 40 19
27 24 24 24 25 28 33 35 38 31 13 1 2 2 2 4 5 3 1 5 8 18 13 8 16 22 25 35 42 44 49 58 50 33 31 14 17 8 36 41 25 33 51 53 47 16 20
23 23 22 22 23 25 29 33 36 31 16 7 3 3 3 6 0 3 11 19 8 10 10 38 35 15 18 40 67 54 54 57 57 54 52 25 13 9 21 12 28 30 29 44 33 24 13
24 23 21 22 22 24 26 30 32 30 21 11 11 5 2 5 5 21 13 9 21 34 17 29 33 24 47 39 7 11 9 10 15 13 10 35 17 8 9 8 19 8 10 14 16 18 9
22 21 21 21 22 23 24 26 28 28 23 8 21 12 3 7 8 11 12 17 9 9 12 11 42 37 29 7 4 6 7 8 10 21 32 23 24 20 7 5 9 13 9 8 7 8 13
21 20 20 20 20 20 21 22 23 25 22 12 12 21 17 12 26 28 7 2 12 5 7 25 24 21 8 5 6 8 10 6 7 12 12 11 8 22 13 9 21 11 8 9 12 13 46
20 19 18 17 18 19 19 20 19 20 21 14 9 23 22 17 41 58 60 46 33 22 7 22 20 4 8 6 4 7 6 7 6 14 4 10 8 8 10 12 19 6 9 9 10 11 52
18 17 17 16 17 18 19 18 18 16 16 18 11 14 25 33 38 45 60 75 74 68 47 17 13 9 8 4 6 7 11 8 5 6 12 5 1 7 7 10 16 36 15 25 26 27 42
Wind_Direction_850mb
34 31 24 22 18 10 5 0 1 356 353 348 344 340 337 330 322 315 306 305 306 296 288 277 286 306 325 289 211 180 294 334 68 145 149 135 135 108 141 179 301 246 304 320 311 307 297
29 28 26 23 14 9 5 2 357 353 350 346 342 339 336 332 328 320 313 312 303 297 291 272 265 285 305 285 180 171 165 252 184 161 162 96 26 340 274 248 161 267 292 299 309 305 319
26 24 23 17 11 7 3 1 357 351 346 342 340 339 335 332 332 329 329 324 304 294 290 272 256 267 271 229 192 189 162 142 171 174 183 56 9 3 323 301 303 287 328 334 308 315 358
25 20 15 11 6 6 4 359 355 351 346 342 340 340 339 335 337 343 340 326 319 296 280 272 247 262 255 215 219 204 195 175 172 182 236 356 348 317 225 312 355 15 52 355 267 324 173
21 19 14 9 4 4 0 355 352 349 346 346 345 342 340 341 351 0 346 21 21 3 309 255 247 254 266 234 247 232 214 190 173 210 275 299 310 271 310 77 5 357 222 222 311 202 291
17 15 11 7 4 1 358 354 352 351 348 348 351 351 345 345 29 16 21 42 47 49 33 2 244 287 294 351 289 143 221 215 215 240 266 275 318 61 40 90 218 250 248 262 251 308 13
16 14 8 7 2 359 358 355 355 353 352 352 354 357 358 6 36 37 50 89 12 325 326 261 257 283 310 0 196 198 196 203 232 190 127 1 79 226 232 196 170 244 255 272 277 284 325
16 11 9 6 1 359 0 1 359 359 357 357 357 1 11 64 45 47 57 63 26 337 306 311 274 262 264 282 315 41 175 178 183 171 134 11 250 238 227 213 237 251 286 288 285 272 167
13 9 8 6 2 359 2 4 3 2 359 1 2 5 27 100 72 97 61 36 16 344 280 312 324 287 282 246 242 286 191 192 142 169 160 170 234 63 189 273 270 256 231 236 246 324 247
9 7 6 4 1 1 2 5 3 0 359 0 3 9 28 204 47 6 345 286 267 306 47 331 10 19 351 117 281 262 239 215 148 200 161 225 267 232 238 250 171 272 214 243 273 9 268
7 5 3 3 1 1 2 3 2 359 358 359 2 16 21 20 10 5 343 312 238 294 69 335 43 28 133 206 325 32 235 197 205 177 108 243 290 266 228 236 162 244 261 229 250 230 281
5 2 0 2 2 0 359 1 1 0 0 1 3 20 20 18 10 0 346 310 262 43 67 355 13 351 3 293 300 334 341 202 230 163 127 235 254 206 216 263 165 277 310 286 80 139 236
3 0 360 1 1 0 359 359 0 358 0 0 357 26 36 32 10 352 346 335 42 71 327 357 325 346 33 340 20 0 345 18 198 155 256 280 252 229 215 293 344 195 76 308 313 179 225
357 357 357 359 360 359 357 357 359 357 356 0 1 21 33 22 8 354 355 62 68 350 358 358 326 347 56 24 2 355 12 13 5 1 35 245 311 182 190 178 211 193 164 171 214 228 268
349 351 354 356 357 357 356 355 357 356 354 353 358 353 13 9 2 357 2 53 127 8 313 336 349 38 2 6 26 11 359 352 45 30 23 337 281 331 316 242 146 280 176 197 227 305 290
344 347 349 351 353 353 354 353 356 357 353 352 351 359 13 6 356 357 66 120 102 21 332 18 63 55 12 349 28 22 320 335 34 41 357 325 302 262 290 281 223 195 194 275 355 199 236
338 341 343 345 348 351 351 352 353 357 354 353 359 42 13 358 6 33 93 53 45 22 29 39 17 13 42 20 332 250 272 324 26 348 345 341 200 296 320 241 225 293 234 202 175 163 209
333 336 337 340 343 347 349 352 351 355 360 355 20 36 358 4 49 37 52 335 352 6 21 19 107 72 79 4 289 264 235 327 5 1 332 266 256 255 256 285 278 257 245 189 177 261 238
330 331 332 334 338 345 347 350 353 355 359 4 14 346 14 13 79 19 334 342 35 19 346 6 25 58 102 317 318 258 308 336 327 2 348 338 285 319 309 308 48 227 219 178 161 112 218
322 326 327 331 336 341 345 346 350 353 357 1 5 19 21 58 66 90 24 321 348 335 53 26 308 58 19 286 234 278 290 299 308 283 260 215 225 221 253 261 303 293 294 293 214 177 220
312 316 321 325 332 340 342 343 347 349 353 2 23 48 33 331 8 357 329 306 319 358 13 31 354 66 21 287 292 255 275 307 290 279 268 186 224 230 259 262 264 271 272 278 269 246 188
308 313 318 324 333 341 342 347 348 347 349 18 35 22 1 324 330 25 355 2 5 8 1 297 203 346 320 249 251 282 284 284 269 278 221 204 263 266 256 264 250 257 255 265 262 261 240
303 309 314 319 330 338 341 344 343 349 346 175 110 89 317 320 351 60 204 352 325 334 301 225 343 317 289 271 274 279 278 275 258 253 254 230 248 267 270 260 275 264 237 246 245 208 196
302 306 310 314 324 334 339 343 343 343 341 234 133 56 45 285 277 236 328 313 316 317 275 296 296 267 266 292 302 295 274 255 252 256 233 236 199 221 268 270 240 243 216 219 222 233 199
295 301 305 310 320 329 335 339 339 337 338 225 190 134 11 285 288 295 310 297 310 314 283 284 301 295 303 298 280 314 303 312 266 244 266 219 203 233 248 246 290 206 147 158 165 232 212
290 293 297 304 314 323 329 335 335 336 333 296 211 210 263 320 259 234 310 283 285 294 318 260 308 314 311 236 201 242 255 273 302 333 323 180 220 205 239 309 263 200 149 47 186 273 175
287 286 291 298 308 318 323 329 330 331 326 318 225 217 226 270 277 274 215 261 304 332 284 302 340 325 343 316 254 231 254 262 300 315 332 266 190 226 254 254 273 251 273 260 145 239 169
277 279 283 292 304 312 317 323 322 327 321 321 236 217 234 258 272 272 272 268 264 258 237 295 323 298 342 329 321 311 345 311 219 207 271 286 205 199 184 203 256 211 265 211 297 274 172
268 276 279 286 297 306 313 316 311 307 313 316 306 245 252 259 261 273 275 277 275 272 259 258 245 301 270 298 331 328 285 256 270 274 243 351 21 283 274 230 298 328 299 327 327 164 155